Location: Observatory
(52.1446°N, 0.4624°W)
Time: 06:48:58
(UTC+01:00)

ISS - Pass Details

Date: 27 March 2019
Orbit: 408 x 410 km, 51.6° (Epoch: 24 April)

Event Time Altitude Azimuth Distance (km) Brightness Sun altitude
Rises 19:06:40 0° 243° (WSW) 2,333 0.9 -6.9°
Reaches altitude 10° 19:08:46 10° 238° (WSW) 1,473 -0.3 -7.2°
Maximum altitude 19:11:59 53° 162° (SSE) 512 -3.5 -7.7°
Drops below altitude 10° 19:15:14 10° 84° (E) 1,476 -1.6 -8.2°
Enters shadow 19:15:16 10° 84° (E) 1,492 -1.5 -8.2°
